This is the latest recevied weather packets stored in our database for station/object WA4OPQ-1. If no packets are shown the sender has not sent any weather packets the latest 10 day(s).
| Time | Temp. | Humidity | Pressure | Rain* | Wind** | Luminosity | Snow |
|---|---|---|---|---|---|---|---|
| 1787783583 | 22.78° C | 92% | 1012.1 hPa | 0 mm | 0 m/s | 41 W/m² | - |
| 1787783038 | 23.33° C | 94% | 1012 hPa | 0 mm | 0 m/s | 41 W/m² | - |
| 1787782493 | 23.33° C | 94% | 1011.9 hPa | 0 mm | 0 m/s | 58 W/m² | - |
| 1787781926 | 23.33° C | 94% | 1012.1 hPa | 0 mm | 0 m/s | 73 W/m² | - |
| 1787781438 | 23.33° C | 94% | 1012.1 hPa | 0 mm | 0 m/s | 52 W/m² | - |
| 1787780958 | 23.33° C | 93% | 1012.2 hPa | 0 mm | 0 m/s | 53 W/m² | - |
| 1787780443 | 23.33° C | 93% | 1011.7 hPa | 0 mm | 0 m/s | 97 W/m² | - |
| 1787779958 | 22.22° C | 97% | 1012.2 hPa | 0 mm | 0.45 m/s, 313° | 134 W/m² | - |
| 1787779408 | 22.22° C | 99% | 1011.7 hPa | 0 mm | 0.45 m/s, 302° | 102 W/m² | - |
| 1787778913 | 22.22° C | 99% | 1012 hPa | 0 mm | 0 m/s | 365 W/m² | - |
| 1787778418 | 21.67° C | 99% | 1012.3 hPa | 0 mm | 0.45 m/s, 318° | 264 W/m² | - |
| 1787777903 | 21.67° C | 99% | 1012.7 hPa | 0 mm | 0 m/s | 194 W/m² | - |
| 1787777398 | 21.67° C | 99% | 1012.1 hPa | 0 mm | 0 m/s | 155 W/m² | - |
| 1787776863 | 21.67° C | 99% | 1012.2 hPa | 0 mm | 0 m/s | 214 W/m² | - |
| 1787776306 | 21.67° C | 99% | 1012.1 hPa | 0 mm | 0 m/s | 205 W/m² | - |
| 1787775728 | 21.67° C | 99% | 1012.1 hPa | 0 mm | 0.45 m/s, 300° | 120 W/m² | - |
| 1787775137 | 21.11° C | 99% | 1012.4 hPa | 0 mm | 0 m/s | 127 W/m² | - |
| 1787774613 | 21.11° C | 99% | 1012.1 hPa | 0 mm | 0 m/s | 129 W/m² | - |
| 1787774013 | 21.11° C | 99% | 1012.3 hPa | 0.25 mm | 0 m/s | 101 W/m² | - |
| 1787773459 | 21.11° C | 99% | 1012.3 hPa | 0.25 mm | 0 m/s | 95 W/m² | - |
| 1787772904 | 21.11° C | 99% | 1013.1 hPa | 0.76 mm | 0 m/s | 87 W/m² | - |
| 1787772409 | 20.56° C | 99% | 1012.9 hPa | 1.27 mm | 0.45 m/s, 304° | 92 W/m² | - |
| 1787771919 | 20.56° C | 99% | 1013.4 hPa | 1.27 mm | 0.89 m/s, 287° | 83 W/m² | - |
| 1787771408 | 20.56° C | 99% | 1013.9 hPa | 1.27 mm | 0.45 m/s, 271° | 87 W/m² | - |
| 1787770898 | 20.56° C | 99% | 1014.2 hPa | 1.78 mm | 0.89 m/s, 276° | 68 W/m² | - |
* Rain latest hour (hover to see other rain measurements)
** Current wind speed in m/s (hover to see current wind gust speed)